Regional Weather Roundup
Issued by NWS Green Bay, WI

Home | Current Version | Previous Version | Graphics & Text | Print | Product List | Glossary Off
Versions: 1 2 3 4 5 6 7 8 9 10 11 12 13 14 15 16 17 18 19 20 21 22 23 24 25 26 27 28 29 30 31 32 33 34 35 36 37 38 39 40 41 42 43 44 45 46 47 48 49 50

000
ASUS43 KGRB 251710
RWRGRB

NORTH-CENTRAL AND NORTHEAST WISCONSIN REGIONAL WEATHER ROUNDUP
NATIONAL WEATHER SERVICE GREEN BAY WI
1200 PM CDT SAT APR 25 2015

WIZ005-009-010>012-018-019-251800-
NORTH CENTRAL WISCONSIN

CITY           SKY/WX    TMP DP  RH WIND       PRES   REMARKS
IRONWOOD       SUNNY     50  25  37 NW6       29.92S
MANITOWISH WTR SUNNY     50  20  30 E10G17    29.92F
ARBOR VITAE    SUNNY     52  20  29 SE6       29.91F
EAGLE RIVER    SUNNY     50  16  25 E10       29.92F
LAND O LAKES   SUNNY     49  16  27 CALM      29.94S
RHINELANDER    CLOUDY    48  20  32 E13G20    29.93F
PHILLIPS       SUNNY     51  20  30 NE13      29.90F
ANTIGO         MOSUNNY   49  22  33 E10G16    29.91F
TOMAHAWK       CLOUDY    50  18  28 E3        29.92S
MERRILL        MOSUNNY   53  20  28 E13G18    29.90S
$$

WIZ013-073-251800-
NORTHEAST WISCONSIN

CITY           SKY/WX    TMP DP  RH WIND       PRES   REMARKS
IRON MOUNTAIN  MOSUNNY   49  15  25 NE5       29.94F
MARINETTE      PTSUNNY   43  18  36 E18       29.97R
OCONTO         CLOUDY    45  16  31 NE12G17   29.94F
$$

WIZ017-030-035>037-045-251800-
CENTRAL WISCONSIN

CITY           SKY/WX    TMP DP  RH WIND       PRES   REMARKS
MEDFORD        MOSUNNY   50  20  30 E9G18     29.89S
WAUSAU         PTSUNNY   51  19  28 E10G22    29.89F
MOSINEE        MOSUNNY   48  19  32 E12G24    29.90F
MARSHFIELD     CLOUDY    51  18  27 E14       29.87F
WISC RAPIDS    PTSUNNY   52  18  26 E20G25    29.89F
STEVENS POINT  CLOUDY    50  18  28 E17G23    29.88F
WAUPACA        CLOUDY    52  14  22 NE14G25   29.90S
SHAWANO        CLOUDY    51  24  35 E14G20    29.93F
CLINTONVILLE   CLOUDY    48  18  29 NE15G21   29.91S
$$

WIZ038-039-048-051-251800-
FOX VALLEY

CITY           SKY/WX    TMP DP  RH WIND       PRES   REMARKS
NWS GREEN BAY  CLOUDY    48  27  44 NE18      29.93S
APPLETON       PTSUNNY   46  12  25 NE17G23   29.90S
OSHKOSH        MOSUNNY   49  27  42 NE16G25   29.88S
FOND DU LAC    CLOUDY    50  27  40 E18       29.87F
$$

WIZ022-050-052-251800-
EAST CENTRAL WISCONSIN

CITY           SKY/WX    TMP DP  RH WIND       PRES   REMARKS
STURGEON BAY   CLOUDY    43  19  39 E10       29.97F
MANITOWOC      CLOUDY    42  26  53 NE12G21   29.91F
SHEBOYGAN      CLOUDY    44  30  57 NE18      29.88F
$$

LMZ563-521-522-541>543-251800-
LAKESHORE

STATION/POSITION TIME  TEMP    WIND        PRES    VSBY  WAVE
                       AIR SEA DIR/SP/G                  HT/PER
                 (UTC) (F)     (DEG/KT/KT) (MB)    (MI)  (FT/S)
SHEBOYGAN LKSHOR 1700   38      20/ 16/ 18 1012.9F
KEWAUNEE LKSHORE 1700   37      40/ 15/ 19 1013.0S
NORTHPORT PIER   1700   37      70/ 13/ 14 1015.2F
SISTER BAY LKSHO 1600   45      20/  6/ 12   N/A
STURGEON BAY CG  1600   39      40/  9     1015.1      6   2
CHAMBERS ISLAND  1700   37      20/ 14/ 17 1015.2S
MENOMINEE LKSHOR 1700   36      20/ 18/ 20 1015.5S
$$



USA.gov is the U.S. government's official web portal to all federal, state and local government web resources and services.